Starlink 32879

operational
NORAD ID: 62957 Int'l Des: 2025-029 Owner: SPXS Country: US Constellation: starlink
LEOCIRCULAR

Starlink 32879について

説明を読み込み中...

リアルタイム位置

3D地球を読み込み中...

次回通過

高度履歴

Altitude vs Time

uPlot chart will show altitude changes over time

軌道要素

1 62957U 25029K 25259.87970189 .00030280 00000-0 10310-2 0 9999
2 62957 53.1595 319.9928 0001204 97.5727 262.5411 15.30179083 34706
Epoch: Sep 16, 2025 • Age: 31 hours

現在のステータス

高度 493.3 km
速度 7.62 km/s
衛星直下点 -50.50°S, 170.12°W
打ち上げ日 Feb 11, 2025
運用期間 0.5 years
タイプ internet

技術仕様

分類 Payload
質量 730.00 kg
乾燥質量 700.00 kg
総質量 730.00 kg
長さ 0.30 m
直径 4.10 m
スパン 29.00 m
形状 Box + pan
製造者 SPXS
バスタイプ Starlink V2M
フェーズステータス In Orbit
所有者/国 SPXS/US

大規模コンステレーション

Loading constellations...